Dewpoint
65 65 66 66 65 64 63 62 62 62 61 60 59 58 59 62 63 63 63 64 66 68 69 68 67 67 67 67 67 66 67 66 65 64 65 64 64 62 62 61 60 60 60
63 64 65 65 64 63 62 61 61 60 59 58 57 57 59 62 63 63 63 64 65 68 69 69 68 67 67 67 67 67 66 66 65 65 65 64 63 62 61 60 59 59 59
63 63 64 64 64 63 62 61 60 60 59 58 57 58 59 62 62 63 63 63 65 66 67 68 68 68 67 67 67 67 66 66 65 64 64 64 62 61 60 59 59 58 58
62 62 63 63 64 63 62 60 60 59 58 58 58 59 60 61 61 62 64 63 63 64 65 66 68 68 68 66 66 67 66 66 64 65 65 63 62 60 59 59 57 57 56
61 62 62 62 63 62 61 60 59 59 58 58 59 59 60 61 61 61 61 63 63 63 63 64 65 65 66 67 66 66 66 66 65 65 64 63 61 60 59 58 56 55 55
61 61 62 62 63 62 61 61 59 59 59 58 60 60 60 61 61 61 61 62 64 64 63 63 63 63 64 65 66 65 65 65 65 64 64 63 61 59 58 57 55 54 53
62 61 61 63 63 62 61 61 60 59 59 61 60 59 59 60 60 61 61 61 62 62 63 63 63 63 63 63 64 65 65 65 64 65 64 63 61 59 57 55 54 53 53
62 62 61 63 63 63 62 62 61 60 60 61 59 58 57 58 59 59 60 60 60 60 61 62 62 63 63 63 64 64 64 65 65 65 64 64 61 59 56 54 54 53 52
64 63 62 62 64 63 62 62 62 61 59 61 60 58 56 55 56 56 58 58 58 58 59 59 59 59 59 60 61 61 62 62 62 62 64 63 62 59 56 54 53 52 52
65 65 64 63 64 65 64 63 63 62 61 60 60 59 57 57 55 54 54 55 56 57 57 57 56 56 56 56 57 58 58 59 59 60 61 62 62 58 55 53 53 51 50
66 65 65 64 64 65 65 64 63 62 61 60 60 59 58 56 56 55 55 54 53 54 54 54 53 53 53 53 53 55 56 56 57 58 59 61 60 56 56 54 52 50 51
66 66 66 65 65 65 65 64 64 63 62 61 61 60 59 58 57 56 56 56 56 55 52 52 52 51 51 51 52 53 53 55 55 56 59 58 56 56 54 53 51 52 53
65 66 66 66 66 65 65 65 64 63 63 62 61 61 60 59 58 58 57 56 55 53 51 49 49 49 49 50 50 52 52 53 54 55 57 57 56 55 53 52 51 53 51
65 66 66 66 65 65 65 64 64 64 63 63 62 61 60 60 59 58 58 56 52 52 50 52 48 48 48 49 50 51 51 52 52 53 54 56 55 53 53 54 53 51 50
65 65 65 65 65 64 64 64 64 63 63 63 62 61 60 60 59 58 57 56 55 51 50 49 49 47 47 48 48 49 50 51 51 51 52 54 53 53 53 52 50 48 46
64 64 64 64 64 64 64 63 63 62 62 61 60 60 59 59 58 58 57 56 55 54 51 51 49 47 47 47 48 48 49 49 50 50 50 53 52 52 49 47 46 45 44
63 63 64 64 63 63 62 62 61 61 60 59 59 58 57 57 56 56 56 55 54 53 51 50 48 45 46 46 46 47 47 47 48 48 49 50 49 47 46 46 45 44 43
63 63 63 63 62 62 61 61 59 59 58 57 56 55 55 54 54 54 53 52 52 52 51 49 47 46 45 45 45 45 45 46 46 47 47 47 45 45 44 44 43 42 41
62 62 62 61 61 60 59 58 57 57 56 55 54 53 52 52 51 51 51 51 51 51 51 49 47 44 43 43 42 42 42 43 44 46 45 45 44 44 43 42 40 40 39
61 60 60 59 58 57 56 55 54 53 53 52 51 51 50 50 50 49 49 49 49 49 48 47 45 43 41 41 42 40 40 40 40 42 41 42 42 42 40 40 39 39 39
58 57 56 55 55 54 53 53 52 51 50 49 49 48 48 48 48 47 47 47 47 46 46 45 43 41 40 39 40 39 38 37 35 37 37 38 39 39 39 39 38 38 38
54 54 53 52 52 51 50 50 49 48 47 47 46 46 45 46 45 45 45 45 44 44 44 43 42 41 40 39 39 38 36 35 34 35 35 33 35 34 36 36 37 36 36
52 51 50 50 49 47 46 46 46 45 44 42 40 39 39 41 41 41 41 42 41 41 41 42 41 41 41 40 40 38 36 36 35 34 35 31 32 31 32 34 35 35 34
50 48 47 46 44 42 41 41 41 41 39 38 38 39 38 38 40 40 39 39 39 39 39 39 40 41 41 40 40 40 38 36 33 33 34 30 31 29 31 32 33 33 33
46 44 44 43 42 40 41 40 39 38 37 36 37 38 38 39 39 39 38 37 37 37 38 39 39 39 39 39 39 38 35 33 32 30 33 29 29 28 29 30 32 32 33
42 42 41 40 39 40 40 40 40 39 38 37 37 36 37 36 36 36 36 36 35 35 36 37 37 37 37 37 38 39 37 35 32 28 32 30 28 27 25 30 31 31 31
Wind_Speed
16 13 13 13 13 14 15 15 14 12 12 10 9 8 7 5 5 5 7 17 16 13 14 13 13 14 14 14 13 12 11 10 9 8 7 8 6 3 4 4 4 3 2
15 16 14 14 14 15 14 15 16 16 16 11 11 11 12 7 7 6 7 12 14 13 13 13 14 15 15 14 12 13 12 12 11 10 10 9 8 7 6 7 7 7 7
17 17 16 15 15 15 15 13 13 12 13 11 14 12 12 9 8 9 9 10 12 14 15 16 15 15 16 16 16 15 15 14 16 17 14 11 11 11 10 11 10 9 8
18 17 16 16 14 15 15 14 13 14 16 14 14 14 14 12 11 10 8 11 12 13 14 16 16 15 16 18 17 16 18 20 20 19 17 18 16 14 13 13 12 11 10
19 18 16 15 15 14 15 15 14 13 15 16 16 15 14 13 13 10 12 12 12 11 11 14 16 15 16 16 18 18 18 20 19 19 19 19 18 16 15 16 15 13 11
21 20 16 16 16 15 14 13 14 15 11 17 11 11 6 9 10 12 11 10 9 11 11 10 9 11 15 15 16 19 20 21 21 22 23 23 21 20 18 17 14 12 12
22 22 19 17 18 18 18 17 14 16 18 8 5 4 5 7 10 10 7 8 8 6 6 7 7 6 8 10 14 18 19 23 23 23 25 27 24 22 20 17 16 14 11
22 22 23 19 20 17 17 17 19 10 14 13 9 2 6 6 10 10 7 8 9 6 7 5 4 5 6 8 10 12 16 17 20 23 22 27 28 25 22 20 19 17 13
23 24 23 21 20 20 20 19 19 20 16 15 12 7 4 12 3 4 12 10 9 9 9 9 9 9 9 9 9 9 11 13 16 17 21 24 27 24 23 22 20 17 16
24 22 22 22 21 20 20 20 19 20 16 18 7 8 0 4 6 4 3 7 9 13 14 11 11 9 7 7 10 11 15 15 16 18 19 24 32 27 24 23 19 18 16
23 23 23 21 21 20 21 18 19 22 21 16 15 7 5 2 2 4 7 5 5 10 9 9 6 8 6 7 9 10 12 14 15 15 15 10 15 17 20 19 18 17 17
18 21 23 22 22 20 20 20 21 22 23 22 18 17 15 11 12 8 8 6 7 3 4 4 7 5 6 6 7 9 11 12 14 15 13 18 23 24 24 21 19 14 15
15 20 20 20 20 21 20 18 19 19 21 21 17 17 13 13 8 7 7 5 8 1 3 1 4 3 5 6 7 9 12 12 12 13 13 22 24 25 24 20 20 19 17
19 17 19 19 20 18 18 18 16 17 16 17 18 16 14 13 10 7 5 8 3 6 2 4 1 1 2 1 6 7 10 12 13 13 16 23 24 23 22 21 19 18 17
15 16 18 19 19 18 18 18 18 17 14 15 17 17 14 13 12 9 10 9 8 5 3 2 4 4 3 3 5 7 8 13 14 15 16 19 23 20 19 20 23 23 20
12 13 14 15 14 15 16 16 14 14 14 11 12 15 12 10 11 10 9 8 7 7 6 6 2 1 3 5 7 7 8 11 13 13 15 21 26 26 26 26 24 22 18
10 12 13 13 15 16 14 14 13 14 16 15 11 12 9 11 11 8 8 7 7 6 7 4 4 1 2 5 8 7 8 8 9 9 14 20 24 27 26 25 24 22 21
10 11 12 13 13 13 14 18 18 14 16 13 14 13 11 9 11 9 8 7 7 8 7 9 6 4 5 2 5 6 6 5 5 10 21 29 30 28 26 25 23 21 18
11 12 13 14 14 15 15 13 14 15 15 15 13 12 11 10 9 7 5 5 4 4 6 7 2 2 4 3 1 2 2 2 1 4 14 23 26 26 26 26 22 19 18
13 13 12 13 14 14 14 14 16 15 14 12 11 9 8 6 5 3 2 2 3 5 5 6 2 4 5 4 3 5 6 1 2 6 6 4 6 13 19 19 20 20 22
11 12 13 13 14 14 13 14 14 13 14 13 9 8 7 7 8 6 2 2 3 6 7 7 6 4 5 5 7 5 6 5 2 2 5 5 8 7 12 16 16 19 19
12 13 14 14 14 13 17 17 14 13 13 12 10 8 8 8 7 5 3 3 4 8 10 8 7 10 10 6 4 7 6 5 6 4 6 6 5 6 9 7 11 16 18
15 15 16 17 18 17 20 19 18 14 14 11 9 7 5 5 4 2 2 4 7 8 9 8 11 11 10 10 8 9 11 9 8 7 10 10 5 9 6 6 17 19 16
17 17 18 17 19 17 22 19 18 14 13 10 8 6 5 6 6 6 7 10 10 11 11 10 12 12 10 6 11 11 15 9 4 5 10 9 7 6 7 9 16 17 18
18 18 17 20 22 16 20 18 15 13 10 7 7 7 7 9 8 7 9 12 14 17 10 13 12 11 11 11 9 7 9 10 8 7 12 6 7 5 7 10 11 16 17
19 21 21 19 20 17 14 14 12 9 5 5 7 5 5 8 9 8 9 11 16 15 10 11 9 10 10 11 13 14 13 15 8 7 9 13 9 8 6 7 13 14 14
Wind_Direction
184 185 189 186 193 189 193 194 203 212 230 239 256 269 275 252 216 197 203 193 193 197 210 211 209 216 212 212 206 208 207 204 203 213 197 206 177 170 177 172 169 183 208
187 187 193 193 196 196 200 200 204 208 222 227 240 244 252 233 228 213 210 206 206 208 214 224 219 219 226 224 216 211 207 203 210 210 207 195 190 184 201 211 209 202 213
189 193 191 196 200 199 202 208 218 218 224 227 239 234 241 237 220 214 210 207 217 219 222 229 228 225 225 224 214 211 209 209 213 210 198 192 191 199 210 214 207 208 217
190 190 197 201 196 197 199 205 212 225 232 223 229 237 227 225 227 215 207 215 218 217 228 237 238 236 231 233 229 220 216 215 219 206 192 192 193 200 213 219 216 220 218
197 196 200 202 191 199 202 202 210 214 230 232 232 236 237 228 226 223 217 218 221 221 222 231 238 246 247 247 241 231 232 230 226 207 200 201 200 203 216 221 222 225 224
201 199 203 199 191 197 206 209 210 205 218 227 228 244 250 246 237 226 223 230 219 224 227 230 235 242 249 252 257 250 241 244 234 225 209 203 208 203 211 215 224 220 222
204 204 207 197 196 203 206 203 208 215 223 211 191 256 252 232 240 238 213 201 209 207 220 228 237 256 268 274 270 271 268 256 252 243 227 207 208 203 208 213 207 192 195
205 205 207 204 201 204 207 204 200 200 218 193 203 173 237 256 246 235 218 205 203 201 226 239 251 255 262 272 275 284 290 286 282 258 249 223 204 198 201 200 198 194 186
205 207 207 208 202 205 210 207 202 208 215 206 210 191 190 230 195 203 229 228 228 233 237 236 247 259 271 275 290 300 302 306 308 298 291 259 216 195 194 189 193 193 198
207 208 208 206 205 204 210 204 201 207 197 212 217 243 328 156 190 235 246 238 230 241 246 254 258 263 265 281 285 288 292 296 299 303 304 312 205 189 190 187 180 206 198
210 210 209 204 206 206 211 200 197 205 207 202 195 183 203 205 200 189 214 214 242 241 246 250 265 279 297 297 297 300 304 306 299 298 292 292 149 170 185 182 191 206 210
210 213 212 209 212 212 213 205 200 203 202 212 201 201 202 206 217 203 214 200 218 247 254 253 265 277 283 288 297 303 304 301 297 295 257 173 172 178 184 183 192 188 165
210 214 200 206 209 209 214 207 200 203 202 208 205 207 210 201 184 197 203 204 221 228 287 301 276 290 307 313 315 319 304 305 295 287 248 183 183 179 183 185 193 168 143
210 207 206 210 211 204 203 203 206 210 195 203 205 202 203 200 182 191 186 179 194 230 293 250 14 309 264 297 299 302 298 301 288 274 259 206 184 175 174 169 156 147 137
204 199 201 204 200 195 195 196 198 199 192 194 202 198 196 200 190 171 189 161 172 184 246 189 190 191 107 9 323 314 312 297 292 277 257 195 170 168 162 157 144 141 138
191 193 202 204 199 197 184 184 185 183 185 187 185 183 178 169 162 158 178 165 164 180 217 208 207 328 353 333 337 328 309 298 287 280 245 183 166 159 148 147 142 144 146
190 192 191 197 193 187 180 188 188 180 173 173 173 163 158 150 149 152 157 162 174 175 215 214 204 66 309 312 313 321 322 301 293 239 193 160 148 146 149 149 151 154 151
191 196 186 194 192 187 184 182 173 174 162 165 153 148 145 142 138 153 161 168 185 196 204 230 197 212 234 325 298 307 316 311 287 199 161 153 154 154 154 156 155 154 156
197 193 192 193 187 180 171 163 155 155 151 149 151 150 147 144 148 156 163 178 219 234 235 236 190 182 238 238 256 21 348 350 8 198 178 167 162 164 163 154 150 143 139
186 184 179 169 162 155 146 140 140 141 132 131 129 130 139 148 158 147 132 197 234 248 254 263 259 237 243 238 195 217 233 46 77 87 78 96 126 147 144 141 144 151 145
164 152 146 138 133 130 128 132 130 131 126 115 99 94 84 77 74 75 107 231 252 255 257 254 244 204 222 218 219 199 206 164 84 97 107 110 124 128 148 150 159 155 146
140 136 127 122 116 112 118 117 120 116 107 110 111 84 64 60 55 46 12 323 275 255 247 239 237 243 243 237 213 199 171 171 216 208 148 144 132 142 150 161 165 160 154
133 125 121 121 116 113 108 103 103 104 104 103 97 83 65 58 62 39 327 286 266 271 258 258 256 249 250 233 215 199 199 201 205 175 169 183 157 173 155 152 165 159 155
131 125 120 114 111 112 110 105 103 102 97 83 77 66 22 343 353 341 294 271 280 279 271 262 247 254 251 254 215 213 209 196 101 161 169 193 164 181 148 154 172 169 163
131 128 128 125 117 110 106 99 96 94 87 64 34 13 349 308 304 292 277 279 285 280 280 270 257 257 264 262 244 188 184 177 207 195 193 155 172 142 162 163 169 176 172
135 131 125 123 123 118 112 106 104 95 64 354 317 300 282 281 288 285 273 273 274 278 277 276 262 259 261 263 245 218 190 211 199 193 179 182 154 151 166 174 170 173 174